This is the latest recevied weather packets stored in our database for station/object KG5WBN. If no packets are shown the sender has not sent any weather packets the latest 10 day(s).
| Time | Temp. | Humidity | Pressure | Rain* | Wind** | Luminosity | Snow |
|---|---|---|---|---|---|---|---|
| 1777474894 | 28.89° C | 46% | 1014.9 hPa | 0 mm | - | 312 W/m² | - |
| 1777474589 | 29.44° C | 48% | 1014.9 hPa | 0 mm | - | 207 W/m² | - |
| 1777474286 | 29.44° C | 48% | 1014.6 hPa | 0 mm | - | 293 W/m² | - |
| 1777473983 | 28.89° C | 48% | 1014.6 hPa | 0 mm | - | 259 W/m² | - |
| 1777473681 | 28.33° C | 44% | 1014.6 hPa | 0 mm | - | 244 W/m² | - |
| 1777473377 | 27.78° C | 45% | 1014.6 hPa | 0 mm | - | 232 W/m² | - |
| 1777473073 | 27.78° C | 48% | 1014.6 hPa | 0 mm | - | 223 W/m² | - |
| 1777472770 | 28.33° C | 49% | 1014.6 hPa | 0 mm | - | 179 W/m² | - |
| 1777472466 | 28.33° C | 49% | 1014.6 hPa | 0 mm | - | 220 W/m² | - |
| 1777472164 | 27.78° C | 50% | 1014.6 hPa | 0 mm | - | 132 W/m² | - |
| 1777471864 | 27.22° C | 51% | 1014.6 hPa | 0 mm | - | 133 W/m² | - |
| 1777471561 | 27.22° C | 52% | 1014.6 hPa | 0 mm | - | 175 W/m² | - |
| 1777471257 | 27.22° C | 52% | 1014.2 hPa | 0 mm | - | 75 W/m² | - |
| 1777470954 | 27.22° C | 53% | 1014.2 hPa | 0 mm | - | 167 W/m² | - |
| 1777470651 | 26.67° C | 56% | 1014.6 hPa | 0 mm | - | 92 W/m² | - |
| 1777470347 | 26.67° C | 56% | 1014.6 hPa | 0 mm | - | 129 W/m² | - |
| 1777470044 | 26.67° C | 64% | 1014.6 hPa | 0 mm | - | 139 W/m² | - |
| 1777469739 | 26.67° C | 68% | 1014.6 hPa | 0 mm | - | 77 W/m² | - |
| 1777469436 | 26.11° C | 69% | 1014.9 hPa | 0 mm | - | 77 W/m² | - |
| 1777469131 | 26.11° C | 69% | 1014.9 hPa | 0 mm | - | 91 W/m² | - |
| 1777468831 | 26.11° C | 71% | 1014.9 hPa | 0 mm | - | 87 W/m² | - |
| 1777468527 | 26.11° C | 71% | 1014.9 hPa | 0 mm | - | 89 W/m² | - |
| 1777468224 | 26.11° C | 74% | 1014.9 hPa | 0 mm | - | 97 W/m² | - |
| 1777467921 | 26.11° C | 76% | 1014.9 hPa | 0 mm | - | 88 W/m² | - |
| 1777467616 | 26.11° C | 77% | 1014.6 hPa | 0 mm | - | 69 W/m² | - |
* Rain latest hour (hover to see other rain measurements)
** Current wind speed in m/s (hover to see current wind gust speed)